Location: Julian California
(33.0790°N, 116.6010°W)
Time: 03:20:42
(UTC-07:00)

Cosmos 158 Rocket - Pass Details

Date: 14 June 2018
Orbit: 699 x 793 km, 74.0° (Epoch: 20 June)

Event Time Altitude Azimuth Distance (km) Brightness Sun altitude
Exits shadow 21:35:34 21° 175° (S) 1,706 5.4 -17.5°
Maximum altitude 21:39:02 57° 103° (ESE) 919 4.1 -18.0°
Drops below altitude 10° 21:44:12 10° 26° (NNE) 2,321 6.7 -18.8°
Sets 21:46:36 0° 22° (NNE) 3,239 7.6 -19.1°
